When you browse on this site, cookies collect data to enhance your experience and personalize the content and advertising you see.
Visit our Privacy Policy to learn more. By continuing to use the site, you agree to this use of cookies and data.
  • In Romania
  • List of Countries
  • For 7 days
  • Water Temperature
  • Weather Map
  • Weather Widgets
  • user-avatar
    Login

    Hourly Weather Abenra

    Today, 18 September, Wednesday

    Time Temperature Precipitation Wind Pressure Humidity
    00:00 +9°C° 0 mm 7 mps 758 mmHg 76%
    01:00 +9°C° 0 mm 7 mps 758 mmHg 75%
    02:00 +9°C° 0 mm 7 mps 758 mmHg 75%
    03:00 +9°C° 0 mm 7 mps 759 mmHg 74%
    04:00 +7°C° 0 mm 8 mps 759 mmHg 74%
    05:00 +7°C° 0 mm 8 mps 759 mmHg 75%
    06:00 +7°C° 0 mm 8 mps 759 mmHg 76%
    07:00 +8°C° 0 mm 7 mps 760 mmHg 78%
    08:00 +7°C° 0 mm 8 mps 760 mmHg 74%
    09:00 +9°C° 0 mm 8 mps 761 mmHg 70%
    10:00 +10°C° 0 mm 8 mps 761 mmHg 67%
    11:00 +10°C° 0 mm 8 mps 761 mmHg 67%
    12:00 +10°C° 0 mm 8 mps 761 mmHg 68%
    13:00 +10°C° 0 mm 7 mps 761 mmHg 69%
    14:00 +10°C° 0.1 mm 8 mps 762 mmHg 69%
    15:00 +10°C° 0.1 mm 8 mps 762 mmHg 70%
    16:00 +11°C° 0.1 mm 8 mps 762 mmHg 70%
    17:00 +10°C° 0 mm 8 mps 762 mmHg 71%
    18:00 +10°C° 0 mm 7 mps 762 mmHg 71%
    19:00 +9°C° 0 mm 7 mps 762 mmHg 71%
    20:00 +9°C° 0 mm 6 mps 762 mmHg 70%
    21:00 +9°C° 0 mm 6 mps 763 mmHg 69%
    22:00 +9°C° 0 mm 6 mps 763 mmHg 68%
    23:00 +9°C° 0 mm 6 mps 763 mmHg 69%

    Tomorrow, 19 September, Thursday

    Time Temperature Precipitation Wind Pressure Humidity
    00:00 +9°C° 0 mm 5 mps 763 mmHg 70%
    01:00 +8°C° 0 mm 5 mps 763 mmHg 71%
    02:00 +9°C° 0 mm 5 mps 763 mmHg 72%
    03:00 +9°C° 0 mm 5 mps 763 mmHg 72%
    04:00 +9°C° 0 mm 5 mps 763 mmHg 72%
    05:00 +9°C° 0 mm 5 mps 764 mmHg 74%
    06:00 +8°C° 0 mm 5 mps 764 mmHg 75%
    07:00 +8°C° 0 mm 4 mps 764 mmHg 76%
    08:00 +9°C° 0 mm 5 mps 764 mmHg 73%
    09:00 +10°C° 0 mm 5 mps 765 mmHg 70%
    10:00 +12°C° 0 mm 5 mps 765 mmHg 68%
    11:00 +12°C° 0 mm 5 mps 765 mmHg 67%
    12:00 +13°C° 0 mm 5 mps 766 mmHg 66%
    13:00 +13°C° 0 mm 5 mps 766 mmHg 65%
    14:00 +13°C° 0 mm 5 mps 766 mmHg 66%
    15:00 +13°C° 0 mm 6 mps 766 mmHg 67%
    16:00 +13°C° 0 mm 6 mps 765 mmHg 68%
    17:00 +12°C° 0 mm 5 mps 765 mmHg 73%
    18:00 +9°C° 0 mm 5 mps 765 mmHg 78%
    19:00 +8°C° 0 mm 4 mps 765 mmHg 83%
    20:00 +8°C° 0 mm 4 mps 766 mmHg 83%
    21:00 +9°C° 0 mm 3 mps 766 mmHg 84%
    22:00 +8°C° 0 mm 3 mps 766 mmHg 84%
    23:00 +9°C° 0 mm 3 mps 766 mmHg 85%

    Day after tomorrow, 20 September, Friday

    Time Temperature Precipitation Wind Pressure Humidity
    00:00 +9°C° 0 mm 3 mps 766 mmHg 85%
    01:00 +9°C° 0 mm 2 mps 766 mmHg 85%
    02:00 +10°C° 0 mm 2 mps 765 mmHg 87%
    03:00 +10°C° 0 mm 2 mps 765 mmHg 88%
    04:00 +12°C° 0 mm 2 mps 765 mmHg 89%
    05:00 +11°C° 0 mm 3 mps 765 mmHg 90%
    06:00 +12°C° 0 mm 3 mps 765 mmHg 91%
    07:00 +12°C° 0 mm 3 mps 765 mmHg 92%
    08:00 +13°C° 0 mm 3 mps 765 mmHg 86%
    09:00 +14°C° 0 mm 3 mps 765 mmHg 81%
    10:00 +16°C° 0 mm 3 mps 766 mmHg 75%
    11:00 +17°C° 0.1 mm 3 mps 766 mmHg 75%
    12:00 +17°C° 0.1 mm 3 mps 766 mmHg 74%
    13:00 +17°C° 0.1 mm 2 mps 766 mmHg 73%
    14:00 +17°C° 0.1 mm 3 mps 765 mmHg 73%
    15:00 +17°C° 0.1 mm 3 mps 765 mmHg 74%
    16:00 +17°C° 0.1 mm 3 mps 765 mmHg 74%
    17:00 +16°C° 0 mm 3 mps 765 mmHg 78%
    18:00 +14°C° 0 mm 3 mps 765 mmHg 81%
    19:00 +13°C° 0 mm 2 mps 765 mmHg 84%
    20:00 +13°C° 0 mm 2 mps 765 mmHg 86%
    21:00 +12°C° 0 mm 2 mps 765 mmHg 88%
    22:00 +12°C° 0 mm 1 mps 765 mmHg 90%
    23:00 +12°C° 0 mm 1 mps 765 mmHg 91%

    21 September, Saturday

    Time Temperature Precipitation Wind Pressure Humidity
    00:00 +11°C° 0 mm 1 mps 765 mmHg 92%
    01:00 +11°C° 0 mm 1 mps 765 mmHg 92%
    02:00 +11°C° 0 mm 1 mps 764 mmHg 92%
    03:00 +11°C° 0 mm 1 mps 764 mmHg 92%
    04:00 +11°C° 0 mm 1 mps 764 mmHg 92%
    05:00 +11°C° 0 mm 1 mps 764 mmHg 92%
    06:00 +11°C° 0 mm 1 mps 764 mmHg 92%
    07:00 +11°C° 0 mm 1 mps 763 mmHg 92%
    08:00 +12°C° 0 mm 1 mps 764 mmHg 86%
    09:00 +14°C° 0 mm 2 mps 764 mmHg 80%
    10:00 +16°C° 0 mm 2 mps 764 mmHg 74%
    11:00 +16°C° 0 mm 2 mps 763 mmHg 71%
    12:00 +17°C° 0 mm 2 mps 763 mmHg 68%
    13:00 +18°C° 0 mm 2 mps 763 mmHg 65%
    14:00 +18°C° 0 mm 3 mps 762 mmHg 67%
    15:00 +18°C° 0 mm 3 mps 761 mmHg 69%
    16:00 +18°C° 0 mm 4 mps 761 mmHg 72%
    17:00 +17°C° 0 mm 4 mps 761 mmHg 77%
    18:00 +14°C° 0 mm 4 mps 760 mmHg 83%
    19:00 +13°C° 0 mm 4 mps 760 mmHg 89%
    20:00 +12°C° 0 mm 4 mps 760 mmHg 88%
    21:00 +12°C° 0 mm 4 mps 760 mmHg 86%
    22:00 +12°C° 0 mm 4 mps 759 mmHg 85%
    23:00 +11°C° 0 mm 4 mps 759 mmHg 83%

    22 September, Sunday

    Time Temperature Precipitation Wind Pressure Humidity
    00:00 +11°C° 0 mm 4 mps 758 mmHg 81%
    01:00 +10°C° 0 mm 4 mps 758 mmHg 79%
    02:00 +10°C° 0 mm 4 mps 757 mmHg 80%
    03:00 +10°C° 0 mm 4 mps 757 mmHg 81%
    04:00 +10°C° 0 mm 4 mps 756 mmHg 81%
    05:00 +10°C° 0 mm 4 mps 756 mmHg 81%
    06:00 +10°C° 0 mm 4 mps 756 mmHg 80%
    07:00 +10°C° 0 mm 4 mps 755 mmHg 80%
    08:00 +11°C° 0 mm 4 mps 755 mmHg 77%
    09:00 +13°C° 0 mm 5 mps 755 mmHg 73%
    10:00 +14°C° 0 mm 5 mps 755 mmHg 70%
    11:00 +14°C° 0 mm 4 mps 754 mmHg 71%
    12:00 +15°C° 0 mm 4 mps 754 mmHg 71%
    13:00 +15°C° 0 mm 4 mps 753 mmHg 72%
    14:00 +16°C° 0 mm 3 mps 753 mmHg 74%
    15:00 +16°C° 0 mm 3 mps 753 mmHg 76%
    16:00 +16°C° 0 mm 3 mps 752 mmHg 78%
    17:00 +14°C° 0.2 mm 3 mps 752 mmHg 80%
    18:00 +14°C° 0.2 mm 3 mps 752 mmHg 82%
    19:00 +14°C° 0.2 mm 3 mps 752 mmHg 84%
    20:00 +14°C° 0 mm 3 mps 752 mmHg 86%
    21:00 +14°C° 0 mm 3 mps 752 mmHg 88%
    22:00 +14°C° 0 mm 2 mps 752 mmHg 90%
    23:00 +14°C° 0 mm 2 mps 752 mmHg 90%

    23 September, Monday

    Time Temperature Precipitation Wind Pressure Humidity
    00:00 +14°C° 0 mm 2 mps 751 mmHg 91%
    01:00 +14°C° 0 mm 2 mps 751 mmHg 91%
    02:00 +14°C° 0 mm 2 mps 751 mmHg 91%
    03:00 +14°C° 0 mm 2 mps 751 mmHg 91%
    04:00 +14°C° 0 mm 2 mps 751 mmHg 91%
    05:00 +14°C° 0.1 mm 2 mps 751 mmHg 91%
    06:00 +14°C° 0.1 mm 2 mps 751 mmHg 91%
    07:00 +14°C° 0.1 mm 2 mps 751 mmHg 91%
    08:00 +15°C° 0.3 mm 2 mps 751 mmHg 91%
    09:00 +16°C° 0.3 mm 2 mps 752 mmHg 92%
    10:00 +17°C° 0.3 mm 2 mps 752 mmHg 92%
    11:00 +16°C° 1.1 mm 3 mps 752 mmHg 93%
    12:00 +15°C° 1.1 mm 4 mps 752 mmHg 94%
    13:00 +15°C° 1.1 mm 5 mps 753 mmHg 95%
    14:00 +14°C° 1.1 mm 4 mps 753 mmHg 95%
    15:00 +14°C° 1.1 mm 3 mps 753 mmHg 96%
    16:00 +14°C° 1.1 mm 3 mps 753 mmHg 96%
    17:00 +15°C° 0.6 mm 2 mps 753 mmHg 96%
    18:00 +15°C° 0.6 mm 2 mps 753 mmHg 96%
    19:00 +15°C° 0.6 mm 2 mps 753 mmHg 96%
    20:00 +14°C° 0.4 mm 1 mps 753 mmHg 96%
    21:00 +14°C° 0.4 mm 1 mps 753 mmHg 95%
    22:00 +14°C° 0.4 mm 1 mps 754 mmHg 95%
    23:00 +14°C° 0.3 mm 1 mps 754 mmHg 95%
    Show more